DW9732 Weather Reports


Display with metric or nautical units.
time (UTC)temp
F
wind
direction
speed
MPH
gust
MPH
rain 1hr
in
rain 24hr
in
rain mn
in
humidity
%
barometer
mb
20260505051530 0 0.0 0.0 0.00 0.00 0.00 1004.6
20260505041606 0 0.0 0.0 0.00 0.00 0.00 1004.0
20260505040100 68 319 4.0 9.0 0.00 0.00 0.00 48 1003.7
20260505034554 69 315 5.0 10.0 0.00 0.00 0.00 45 1003.4
20260505033052 71 317 5.0 10.0 0.00 0.00 0.00 43 1003.2
20260505030045 74 327 12.0 17.0 0.00 0.00 0.00 39 1002.6
20260505024644 74 327 9.0 13.0 0.00 0.00 0.00 39 1002.4
20260505023040 75 316 9.0 15.0 0.00 0.00 0.00 39 1002.3
20260505021538 76 299 8.0 16.0 0.00 0.00 0.00 38 1002.3
20260505020036 77 321 9.0 15.0 0.00 0.00 0.00 37 1002.2
20260505014533 78 317 13.0 18.0 0.00 0.00 0.00 36 1002.2
20260505011533 79 337 14.0 19.0 0.00 0.00 0.00 33 1002.3
20260505010131 79 311 9.0 20.0 0.00 0.00 0.00 36 1002.3
20260505004529 80 300 11.0 19.0 0.00 0.00 0.00 33 1002.4
20260505003027 80 311 9.0 20.0 0.00 0.00 0.00 36 1002.4
20260505001527 81 346 14.0 19.0 0.00 0.00 0.00 32 1002.3
20260505000029 81 338 14.0 19.0 0.00 0.00 0.00 33 1002.3
20260504233025 81 340 11.0 15.0 0.00 0.00 0.00 36 1002.3
20260504231624 84 344 8.0 13.0 0.00 0.00 0.00 34 1002.3
20260504230022 85 57 0.0 3.0 0.00 0.00 0.00 28 1002.6
20260504224521 85 342 0.0 2.0 0.00 0.00 0.00 35 1002.9
20260504223018 83 91 0.0 10.0 0.00 0.00 0.00 28 1003.0
20260504221516 83 82 2.0 4.0 0.00 0.00 0.00 31 1003.3
20260504214512 83 181 0.0 4.0 0.00 0.00 0.00 28 1003.9
20260504213109 83 116 1.0 3.0 0.00 0.00 0.00 26 1004.1
20260504211506 85 98 0.0 2.0 0.00 0.00 0.00 28 1004.5
20260504210003 82 142 0.0 5.0 0.00 0.00 0.00 26 1004.8
20260504204616 81 128 1.0 5.0 0.00 0.00 0.00 28 1005.2
20260504203108 81 119 2.0 4.0 0.00 0.00 0.00 27 1005.6
20260504200052 79 18 0.0 2.0 0.00 0.00 0.00 39 1006.5
20260504194550 78 55 1.0 3.0 0.00 0.00 0.00 37 1007.0
20260504193049 0 0.0 0.0 0.00 0.00 0.00 1007.5
20260504191543 0 0.0 0.0 0.00 0.00 0.00 1007.7
20260504190100 0 0.0 0.0 0.00 0.00 0.00 1007.9
20260504184536 0 0.0 0.0 0.00 0.00 0.00 1008.1
20260504181528 0 0.0 0.0 0.00 0.00 0.00 1008.3
20260504180024 0 0.0 0.0 0.00 0.00 0.00 1008.3
20260504174522 0 0.0 0.0 0.00 0.00 0.00 1008.4
20260504173017 0 0.0 0.0 0.00 0.00 0.00 1008.6
20260504171514 0 0.0 0.0 0.00 0.00 0.00 1008.6
20260504160103 0 0.0 0.0 0.00 0.00 0.00 1008.9
20260504150143 0 0.0 0.0 0.00 0.00 0.00 1009.2
20260504081511 0 0.0 0.0 0.00 0.00 0.00 1008.2